Time,TemperatureF,DewpointF,PressureIn,WindDirection,WindDirectionDegrees,WindSpeedMPH,WindSpeedGustMPH,Humidity,HourlyPrecipIn,Conditions,Clouds,dailyrainin,SoftwareType,DateUTC
2013-01-19 00:00:00,51.0,37.0,-100.00,North,-999,-999.0,-999.0,59,0.00,,,0.00,,2013-01-19 08:00:00,
2013-01-19 00:53:00,51.0,37.0,-100.00,North,-999,-999.0,-999.0,59,0.00,,,0.00,,2013-01-19 08:53:00,
2013-01-19 01:00:00,50.0,36.0,-100.00,North,-999,-999.0,-999.0,58,-99.99,,,0.00,,2013-01-19 09:00:00,
2013-01-19 01:53:00,50.0,36.0,-100.00,North,-999,-999.0,-999.0,58,-99.99,,,0.00,,2013-01-19 09:53:00,
2013-01-19 02:00:00,49.0,37.0,-100.00,North,-999,-999.0,-999.0,63,0.00,,,-99.99,,2013-01-19 10:00:00,
2013-01-19 02:53:00,49.0,37.0,-100.00,North,-999,-999.0,-999.0,63,0.00,,,-99.99,,2013-01-19 10:53:00,
2013-01-19 04:00:00,46.0,35.0,-100.00,North,-999,-999.0,-999.0,65,0.00,,,0.00,,2013-01-19 12:00:00,
2013-01-19 04:53:00,46.0,35.0,-100.00,North,-999,-999.0,-999.0,65,0.00,,,0.00,,2013-01-19 12:53:00,
2013-01-19 05:00:00,47.0,33.0,-100.00,North,-999,-999.0,-999.0,60,0.00,,,0.00,,2013-01-19 13:00:00,
2013-01-19 05:53:00,47.0,33.0,-100.00,North,-999,-999.0,-999.0,60,0.00,,,0.00,,2013-01-19 13:53:00,
2013-01-19 06:00:00,45.0,35.0,-100.00,North,-999,-999.0,-999.0,69,0.00,,,0.00,,2013-01-19 14:00:00,
2013-01-19 06:53:00,45.0,35.0,-100.00,North,-999,-999.0,-999.0,69,0.00,,,0.00,,2013-01-19 14:53:00,
2013-01-19 07:00:00,43.0,35.0,-100.00,North,-999,-999.0,-999.0,73,0.00,,,0.00,,2013-01-19 15:00:00,
2013-01-19 07:53:00,43.0,35.0,-100.00,North,-999,-999.0,-999.0,73,0.00,,,0.00,,2013-01-19 15:53:00,
2013-01-19 08:00:00,45.0,37.0,-100.00,North,-999,-999.0,-999.0,74,0.00,,,0.00,,2013-01-19 16:00:00,
2013-01-19 08:54:00,45.0,37.0,-100.00,North,-999,-999.0,-999.0,74,0.00,,,0.00,,2013-01-19 16:54:00,
2013-01-19 09:00:00,50.0,40.0,-100.00,North,-999,-999.0,-999.0,67,0.00,,,0.00,,2013-01-19 17:00:00,
2013-01-19 09:54:00,50.0,40.0,-100.00,North,-999,-999.0,-999.0,67,0.00,,,0.00,,2013-01-19 17:54:00,
2013-01-19 10:00:00,56.0,40.0,-100.00,North,-999,-999.0,-999.0,55,0.00,,,0.00,,2013-01-19 18:00:00,
2013-01-19 10:59:00,56.0,40.0,-100.00,North,-999,-999.0,-999.0,55,0.00,,,0.00,,2013-01-19 18:59:00,
2013-01-19 11:00:00,60.0,37.0,-100.00,North,-999,-999.0,-999.0,42,0.00,,,0.00,,2013-01-19 19:00:00,
2013-01-19 12:00:00,65.0,37.0,-100.00,North,-999,-999.0,-999.0,36,0.00,,,0.00,,2013-01-19 20:00:00,
2013-01-19 13:00:00,68.0,37.0,-100.00,North,-999,-999.0,-999.0,32,0.00,,,0.00,,2013-01-19 21:00:00,
2013-01-19 13:59:00,68.0,37.0,-100.00,North,-999,-999.0,-999.0,32,0.00,,,0.00,,2013-01-19 21:59:00,
2013-01-19 14:00:00,71.0,37.0,-100.00,North,-999,-999.0,-999.0,29,0.00,,,0.00,,2013-01-19 22:00:00,
2013-01-19 14:58:00,71.0,37.0,-100.00,North,-999,-999.0,-999.0,29,0.00,,,0.00,,2013-01-19 22:58:00,
2013-01-19 15:00:00,73.0,38.0,-100.00,North,-999,-999.0,-999.0,28,0.00,,,0.00,,2013-01-19 23:00:00,
2013-01-19 16:00:00,72.0,34.0,-100.00,North,-999,-999.0,-999.0,25,0.00,,,0.00,,2013-01-20 00:00:00,
2013-01-19 16:55:00,72.0,34.0,-100.00,North,-999,-999.0,-999.0,25,0.00,,,0.00,,2013-01-20 00:55:00,
2013-01-19 17:00:00,67.0,39.0,-100.00,North,-999,-999.0,-999.0,36,0.00,,,0.00,,2013-01-20 01:00:00,
2013-01-19 18:00:00,60.0,41.0,-100.00,North,-999,-999.0,-999.0,48,0.00,,,0.00,,2013-01-20 02:00:00,
2013-01-19 18:58:00,60.0,41.0,-100.00,North,-999,-999.0,-999.0,48,0.00,,,0.00,,2013-01-20 02:58:00,
2013-01-19 19:00:00,57.0,41.0,-100.00,North,-999,-999.0,-999.0,56,0.00,,,0.00,,2013-01-20 03:00:00,
2013-01-19 19:57:00,57.0,41.0,-100.00,North,-999,-999.0,-999.0,56,0.00,,,0.00,,2013-01-20 03:57:00,
2013-01-19 20:00:00,56.0,41.0,-100.00,North,-999,-999.0,-999.0,59,0.00,,,-99.99,,2013-01-20 04:00:00,
2013-01-19 20:56:00,56.0,41.0,-100.00,North,-999,-999.0,-999.0,59,0.00,,,-99.99,,2013-01-20 04:56:00,
2013-01-19 21:00:00,54.0,41.0,-100.00,North,-999,-999.0,-999.0,62,-99.99,,,0.00,,2013-01-20 05:00:00,
2013-01-19 22:00:00,52.0,41.0,-100.00,North,-999,-999.0,-999.0,67,0.00,,,0.00,,2013-01-20 06:00:00,
2013-01-19 22:53:00,52.0,41.0,-100.00,North,-999,-999.0,-999.0,67,0.00,,,0.00,,2013-01-20 06:53:00,
2013-01-19 23:00:00,51.0,41.0,-100.00,North,-999,-999.0,-999.0,68,0.00,,,0.00,,2013-01-20 07:00:00,
2013-01-19 23:52:00,51.0,41.0,-100.00,North,-999,-999.0,-999.0,68,0.00,,,0.00,,2013-01-20 07:52:00,